Regional Weather Roundup
Issued by NWS

Home | Current Version | Previous Version | Text Only | Print | Product List | Glossary Off
Versions: 1 2 3 4 5 6 7 8 9 10 11 12 13 14 15 16 17 18 19 20 21 22 23 24 25 26 27 28 29 30 31 32 33 34 35 36 37 38 39 40 41 42 43 44 45 46 47 48 49 50

000
ASUS43 KFSD 181402
RWRSD

WEATHER ROUNDUP FOR SOUTH DAKOTA
NATIONAL WEATHER SERVICE SIOUX FALLS SD
800 AM CST SAT NOV 18 2017

NOTE: "FAIR" INDICATES FEW OR NO CLOUDS BELOW 12,000 FEET WITH NO
SIGNIFICANT WEATHER AND/OR OBSTRUCTIONS TO VISIBILITY.


SDZ001>005-009-010-012>017-181500-
NORTHWEST AND NORTH CENTRAL SOUTH DAKOTA

CITY           SKY/WX    TMP DP  RH WIND       PRES   REMARKS
BUFFALO          N/A     24  21  88 NW13      30.00R WCI  12
FAITH            N/A     25  23  92 NW12      30.05R WCI  14
MOBRIDGE       CLEAR     22  15  75 NW18G25   30.02R WCI   7
$$

SDZ012>016-024>037-041>051-057-063-072>074-181500-
SOUTHWEST AND SOUTH CENTRAL SOUTH DAKOTA

CITY           SKY/WX    TMP DP  RH WIND       PRES   REMARKS
RAPID CTY ARPT CLEAR     33  18  53 NW15      30.10R WCI  23
PIERRE         CLEAR     30  26  85 N15       30.04R WCI  19
CUSTER         CLEAR     24  13  62 W7        30.06R WCI  16
ELLSWORTH AFB  PTCLDY    33  18  54 NW15G23   30.08R WCI  23
PHILIP         CLEAR     30  26  85 W10       30.09R WCI  21
PINE RIDGE     CLEAR     18  17  96 SW5       30.12R WCI  11
SPEARFISH      FAIR      32  16  51 W17G24    30.08S WCI  21
WINNER         FAIR      34  28  79 NW15      30.03R WCI  24
$$

SDZ004>011-016>023-039-040-181500-
NORTHEAST SOUTH DAKOTA

CITY           SKY/WX    TMP DP  RH WIND       PRES   REMARKS
ABERDEEN       CLOUDY    22  18  85 NW6       30.00R WCI  14
WATERTOWN      MOCLDY    21  17  84 NW14      29.91R WCI   8
BROOKINGS      PTCLDY    25  20  81 N9        29.90R WCI  15
SISSETON         N/A     24  17  74 NW17      29.94R WCI  11
$$

SDZ017-020-022-023-036>040-048>070-181500-
SOUTHEAST SOUTH DAKOTA

CITY           SKY/WX    TMP DP  RH WIND       PRES   REMARKS
SIOUX FALLS    PTCLDY    30  22  72 NW8       29.90R WCI  22
HURON          MOCLDY    23  19  85 NW8       29.98R WCI  14
CHAMBERLAIN    CLEAR     35  31  85 NW13G21   30.02R WCI  26
MITCHELL       CLEAR     23  20  88 NW7       29.98R WCI  15
YANKTON        CLOUDY    31  24  75 NW13      29.94R WCI  21
$$

ABBREVIATIONS USED IN REMARKS
   TC - TEMPERATURE IN CELSIUS
  WCI - WIND CHILL INDEX
   HX - HEAT INDEX
  VSB - VISIBILITY





USA.gov is the U.S. government's official web portal to all federal, state and local government web resources and services.